This demonstration page uses our WeatherBlox Daily Observations layout. Learn more.

Left ArrowRight Arrow

Hourly Observations for December 20, 2015

Temp ( °F °C ) Dew Point ( °F °C ) Humidity (%) Winds ( mph kmh ) Pressure ( in mb ) Visibility ( mi km ) Precip ( " mm )
12:53 am 00:53 Clear 20 -6.7 16 -8.9 85 85 Calm 30.52 1033 10 16 0.00 0.00
1:53 am 01:53 Clear 21 -6.1 17 -8.3 85 85 Calm 30.50 1033 10 16 0.00 0.00
2:53 am 02:53 Clear 21 -6.1 18 -7.8 88 88 Calm 30.49 1033 10 16 0.00 0.00
3:53 am 03:53 Clear 24 -4.4 18 -7.8 77 77 E 3 6 30.49 1032 10 16 0.00 0.00
4:53 am 04:53 Clear 22 -5.6 18 -7.8 85 85 E 3 6 30.48 1032 10 16 0.00 0.00
5:53 am 05:53 Clear 24 -4.4 19 -7.2 81 81 E 3 6 30.48 1032 10 16 0.00 0.00
6:53 am 06:53 Clear 24 -4.4 19 -7.2 81 81 E 3 6 30.51 1033 10 16 0.00 0.00
7:53 am 07:53 Clear 26 -3.3 20 -6.7 78 78 E 5 7 30.47 1032 10 16 0.00 0.00
8:53 am 08:53 Sunny 30 -1.1 21 -6.1 69 69 Calm 30.48 1032 10 16 0.00 0.00
9:53 am 09:53 Sunny 34 1.1 22 -5.6 61 61 ESE 5 7 30.47 1032 10 16 0.00 0.00
10:53 am 10:53 Sunny 38 3.3 23 -5 55 55 VRB 3 6 30.47 1032 10 16 0.00 0.00
11:53 am 11:53 Sunny 43 6.1 23 -5 45 45 S 6 9 30.42 1030 10 16 0.00 0.00
12:53 pm 12:53 Sunny 44 6.7 24 -4.4 45 45 SSE 6 9 30.37 1028 10 16 0.00 0.00
1:53 pm 13:53 Sunny 47 8.3 25 -3.9 42 42 VRB 7 11 30.32 1027 10 16 0.00 0.00
2:53 pm 14:53 Sunny 47 8.3 26 -3.3 44 44 S 7 11 30.30 1026 10 16 0.00 0.00
3:53 pm 15:53 Sunny 48 8.9 26 -3.3 42 42 VRB 6 9 30.28 1026 10 16 0.00 0.00
4:53 pm 16:53 Sunny 47 8.3 25 -3.9 42 42 VRB 6 9 30.27 1025 10 16 0.00 0.00
5:53 pm 17:53 Clear 46 7.8 24 -4.4 42 42 SE 6 9 30.25 1024 10 16 0.00 0.00
6:53 pm 18:53 Clear 46 7.8 25 -3.9 44 44 S 6 9 30.24 1024 10 16 0.00 0.00
7:53 pm 19:53 Clear 46 7.8 25 -3.9 44 44 S 6 9 30.23 1024 10 16 0.00 0.00
8:53 pm 20:53 Clear 47 8.3 22 -5.6 37 37 VRB 7 11 30.22 1023 10 16 0.00 0.00
9:53 pm 21:53 Clear 45 7.2 22 -5.6 40 40 S 5 7 30.22 1023 10 16 0.00 0.00
10:53 pm 22:53 Clear 46 7.8 22 -5.6 38 38 S 6 9 30.18 1022 10 16 0.00 0.00
11:53 pm 23:53 Clear 44 6.7 23 -5 43 43 Calm 30.17 1022 10 16 0.00 0.00

Powered by AerisWeather